Content
SEND FEEDBACK

Daily
Averages
Monthly
Summary
Canada

VANCOUVER, BRITISH COLUMBIA


Home > North America > Canada > British Columbia
Elevation: 2 meters     Latitude: 49 11N     Longitude: 123 10W

WEATHER
 
SELECT A DAY
Number of Records: 249,704;   Date Range: 5/15/97 - 8/31/14
 
SHARE

PRINT THIS DATA

[ ← Previous Day ]
WEATHER ALMANAC - 31 MARCH, 2013
[ Next Day → ]
[ °F ]   °C
Weather ElementAverageHighLow
Temperature9.5 °C14 °C (6:15 pm)7 °C (3:15 am)
Dewpoint6.3 °C8 °C (7:55 am)4 °C (5:55 pm)
Humidity81.7 %100 % (3:15 am)51 % (6:15 pm)
Barometer1016.3 hPa1019 hPa (12:35 am)1012.9 hPa (7:55 pm)
Wind Speed3.2 km/h13 km/h (12:35 pm)
Weather ElementAverage
Visibility15.8 km
Wind DirectionESE (114.3 °)

Weather ElementTotal
Precipitation---
Heating Degree Days7.8 (Base 18.3)
Growing Degree Days0.5 (Base 10)
Averaged from 70 records on 31 March, 2013
WEATHER CONDITIONS BREAKOUT
WIND DIRECTION BREAKOUT
WEATHER BY HOUR - 31 MARCH, 2013
[ °F ]   °C
Local TimeTemperatureDewpointHumidityBarometerVisibilityWind DirectionWind SpeedGust SpeedPrecipitationEventsConditions
12:35 AM9 °C6 °C82 %1019 hPa16.1 kmNNW (340°)5.6 km/hClear
12:55 AM9 °C6 °C82 %1019 hPa16.1 kmCalmClear
1:15 AM9 °C7 °C87 %1019 hPa16.1 kmCalmClear
1:35 AM8 °C7 °C93 %1019 hPa16.1 kmCalmClear
1:55 AM8 °C7 °C93 %1018.6 hPa16.1 kmCalmClear
2:15 AM8 °C7 °C93 %1018.6 hPa16.1 kmCalmClear
2:35 AM8 °C7 °C93 %1018.3 hPa16.1 kmCalmClear
2:55 AM8 °C7 °C93 %1018.3 hPa16.1 kmCalmClear
3:15 AM7 °C7 °C100 %1018.3 hPa16.1 kmCalmClear
3:35 AM7 °C7 °C100 %1018.3 hPa16.1 kmCalmClear
3:55 AM7 °C6 °C93 %1017.9 hPa16.1 kmCalmClear
4:15 AM7 °C6 °C93 %1017.9 hPa16.1 kmCalmClear
4:35 AM7 °C7 °C100 %1017.9 hPa16.1 kmCalmClear
4:55 AM8 °C7 °C93 %1017.6 hPa16.1 kmCalmClear
5:15 AM8 °C7 °C93 %1017.6 hPa16.1 kmCalmClear
5:35 AM8 °C7 °C93 %1017.6 hPa16.1 kmNorth (360°)5.6 km/hClear
5:55 AM8 °C7 °C93 %1017.6 hPa16.1 kmNorth (350°)7.4 km/hClear
6:15 AM8 °C7 °C93 %1017.6 hPa16.1 kmNorth (350°)9.3 km/hClear
6:35 AM7 °C7 °C100 %1017.6 hPa16.1 kmCalmClear
6:55 AM7 °C7 °C100 %1017.6 hPa16.1 kmCalmClear
7:15 AM7 °C7 °C100 %1017.6 hPa14.5 kmCalmClear
7:35 AM8 °C7 °C93 %1017.6 hPa14.5 kmCalmClear
7:55 AM8 °C8 °C100 %1017.6 hPa14.5 kmCalmClear
8:15 AM8 °C8 °C100 %1017.6 hPa14.5 kmCalmClear
8:35 AM9 °C8 °C93 %1017.9 hPa14.5 kmCalmClear
8:55 AM9 °C8 °C93 %1017.6 hPa16.1 kmNorth (360°)9.3 km/hClear
9:15 AM9 °C8 °C93 %1017.6 hPa16.1 kmNorth (10°)7.4 km/hClear
9:35 AM9 °C8 °C93 %1017.6 hPa16.1 kmNorth (360°)11.1 km/hPartly Cloudy
9:55 AM9 °C8 °C93 %1017.6 hPa16.1 kmNorth (360°)9.3 km/hClear
10:15 AM10 °C8 °C87 %1017.6 hPa16.1 kmNorth (350°)11.1 km/hClear
10:35 AM10 °C8 °C87 %1017.6 hPa14.5 kmNNW (340°)9.3 km/hClear
10:55 AM10 °C8 °C87 %1017.6 hPa16.1 kmNW (320°)5.6 km/hClear
11:15 AM10 °C8 °C87 %1017.6 hPa16.1 kmNorth (360°)7.4 km/hClear
11:35 AM10 °C8 °C87 %1017.6 hPa16.1 kmCalmClear
11:55 AM10 °C8 °C87 %1017.6 hPa16.1 kmNorth (360°)7.4 km/hClear
12:15 PM10 °C8 °C87 %1017.6 hPa16.1 kmNorth (360°)9.3 km/hClear
12:35 PM10 °C8 °C87 %1017.3 hPa16.1 kmNorth (350°)13 km/hClear
1:15 PM11 °C8 °C82 %1016.9 hPa16.1 kmNNW (330°)11.1 km/hClear
1:35 PM11 °C8 °C82 %1016.6 hPa16.1 kmNNW (330°)13 km/hClear
1:55 PM12 °C7 °C72 %1016.6 hPa16.1 kmNNW (340°)11.1 km/hClear
2:15 PM11 °C7 °C76 %1016.3 hPa14.5 kmNorth (350°)9.3 km/hClear
2:35 PM12 °C7 °C72 %1016.3 hPa16.1 kmNNW (330°)9.3 km/hClear
2:55 PM12 °C7 °C72 %1015.9 hPa16.1 kmNNW (340°)13 km/hClear
3:15 PM12 °C6 °C67 %1015.6 hPa16.1 kmNorth (350°)5.6 km/hClear
3:35 PM12 °C7 °C72 %1015.6 hPa16.1 kmNorth (350°)7.4 km/hClear
3:55 PM12 °C7 °C72 %1015.2 hPa16.1 kmCalmClear
4:15 PM12 °C7 °C72 %1014.9 hPa16.1 kmNorth (350°)7.4 km/hClear
4:35 PM12 °C6 °C67 %1014.6 hPa16.1 kmCalmClear
4:55 PM13 °C6 °C63 %1014.6 hPa16.1 kmCalmClear
5:15 PM13 °C5 °C58 %1014.2 hPa16.1 kmCalmClear
5:35 PM13 °C5 °C58 %1014.2 hPa16.1 kmCalmClear
5:55 PM13 °C4 °C54 %1013.9 hPa16.1 kmCalmClear
6:15 PM14 °C4 °C51 %1013.5 hPa16.1 kmCalmClear
6:35 PM14 °C4 °C51 %1013.5 hPa16.1 kmCalmClear
6:55 PM14 °C4 °C51 %1013.2 hPa16.1 kmCalmClear
7:15 PM12 °C5 °C62 %1013.2 hPa16.1 kmCalmClear
7:35 PM11 °C5 °C67 %1013.2 hPa16.1 kmCalmClear
7:55 PM10 °C5 °C71 %1012.9 hPa16.1 kmCalmClear
8:15 PM10 °C5 °C71 %1012.9 hPa16.1 kmCalmClear
8:35 PM9 °C4 °C71 %1012.9 hPa16.1 kmCalmClear
8:55 PM9 °C4 °C71 %1013.2 hPa11.3 kmCalmClear
9:15 PM9 °C4 °C71 %1013.2 hPa16.1 kmCalmClear
9:35 PM9 °C4 °C71 %1013.2 hPa14.5 kmCalmClear
9:55 PM8 °C4 °C76 %1013.5 hPa14.5 kmCalmClear
10:15 PM8 °C4 °C76 %1013.5 hPa12.9 kmCalmClear
10:35 PM8 °C4 °C76 %1013.5 hPa16.1 kmCalmClear
10:55 PM7 °C4 °C81 %1013.9 hPa16.1 kmCalmClear
11:15 PM7 °C4 °C81 %1013.9 hPa11.3 kmNorthClear
11:35 PM7 °C4 °C81 %1013.9 hPa16.1 kmCalmClear
11:55 PM7 °C4 °C81 %1013.9 hPa16.1 kmNorthClear
Hourly data recorded from CZBB, located 0 kilometers away from Vancouver, British Columbia







STORIES FROM OUR PARTNERS